{"data":{"norad_id":63558,"epoch":"2026-09-20T17:42:10.931328Z","epoch_age_seconds":135034,"freshness":"FRESH","line1":"1 63558U 25075L   26263.73762652  .00185774  00000+0  14161-2 0  9999","line2":"2 63558  42.9994  58.1995 0001131 251.0725 109.0021 15.70891917 83924","mean_motion":15.70891917,"eccentricity":0.0001131,"inclination_deg":42.9994,"raan_deg":58.1995,"arg_perigee_deg":251.0725,"mean_anomaly_deg":109.0021,"bstar":0.0014161,"rev_number":8392,"period_min":91.667668820273,"perigee_km":355.58500704905,"apogee_km":357.10834725682,"semimajor_km":6734.4836771529,"source":"CELESTRAK","updated_at":"2026-09-21T09:00:35.021006Z"}}